UAL2112 KLAX-KSFO

Flight info

Callsign UAL2112
Flight time N/A
Altitude 32000
Route SUMMR2 STOKD SERFR SERFR4
Aircraft B772/H-SDE2E3FGHIJ5LORVWXY/LB1D1

Departure

Time 2026-04-26 01:18
Airport Los Angeles International Airport (KLAX)

Arrival

Time N/A
Airport San Francisco International Airport (KSFO)
Time Latitude Longitude Altitude Speed Heading
2026-04-26 01:18 33.92923 -118.67533 6272 ft 259 kts 264°
2026-04-26 01:18 33.92757 -118.69687 6980 ft 261 kts 264°
2026-04-26 01:18 33.92588 -118.71860 7633 ft 265 kts 263°
2026-04-26 01:18 33.92418 -118.74044 8371 ft 264 kts 263°
2026-04-26 01:19 33.92247 -118.76231 9070 ft 266 kts 263°
2026-04-26 01:19 33.92075 -118.78435 9766 ft 267 kts 263°
2026-04-26 01:19 33.91899 -118.80677 10307 ft 274 kts 262°
2026-04-26 01:19 33.91723 -118.83028 10598 ft 291 kts 265°
2026-04-26 01:20 33.91743 -118.85521 10937 ft 305 kts 270°
2026-04-26 01:20 33.91829 -118.88118 11551 ft 310 kts 270°
2026-04-26 01:20 33.91914 -118.90685 12300 ft 312 kts 270°
2026-04-26 01:20 33.91993 -118.93274 13089 ft 313 kts 270°
2026-04-26 01:21 33.92071 -118.95883 13917 ft 314 kts 269°
2026-04-26 01:21 33.92148 -118.98530 14723 ft 317 kts 269°
2026-04-26 01:21 33.92442 -119.01181 15543 ft 326 kts 280°
2026-04-26 01:21 33.93269 -119.03736 16302 ft 339 kts 293°
2026-04-26 01:22 33.94496 -119.06172 17041 ft 346 kts 296°
2026-04-26 01:22 33.95808 -119.08653 17785 ft 352 kts 296°
2026-04-26 01:22 33.97111 -119.11138 18557 ft 356 kts 296°
2026-04-26 01:23 33.99691 -119.16106 20077 ft 362 kts 297°